Location: Proctor
(47.8934°N, 114.3048°W)
Time: 22:34:44
(UTC+00:00)

Transit 4A - Visible Passes

Search period start: 25 June 2024 00:00
Search period end: 05 July 2024 00:00
Orbit: 871 x 972 km, 66.8° (Epoch: 25 June)

Date Brightness Start Highest point End Pass type
(mag) Time Alt. Az. Time Alt. Az. Time Alt. Az.
25 Jun 7.7 05:21:28 10° SSW 05:27:16 73° ESE 05:33:05 10° NE visible
25 Jun 9.7 07:09:09 10° W 07:14:09 28° NW 07:19:10 10° NNE visible
25 Jun 10.6 09:00:01 10° NW 09:02:34 13° NNW 09:05:10 10° NNE visible
25 Jun 10.7 10:48:35 10° NNW 10:51:39 14° NNE 10:54:46 10° NE visible
26 Jun 7.9 05:30:27 10° SW 05:36:17 82° NW 05:42:09 10° NNE visible
26 Jun 10.1 07:18:58 10° W 07:23:30 23° NNW 07:28:05 10° NNE visible
26 Jun 10.8 09:10:01 10° NNW 09:12:12 12° N 09:14:25 10° NNE visible
26 Jun 10.6 10:57:33 10° NNW 11:01:12 16° NNE 11:04:53 10° ENE visible
27 Jun 8.4 05:39:37 10° SW 05:45:22 60° NW 05:51:09 10° NNE visible
27 Jun 10.4 07:28:54 10° WNW 07:32:56 19° NNW 07:37:00 10° NNE visible
27 Jun 10.9 09:19:45 10° NNW 09:21:50 12° N 09:23:56 10° NNE visible
28 Jun 9.0 05:48:59 10° WSW 05:54:32 44° NW 06:00:07 10° NNE visible
28 Jun 10.6 07:38:57 10° WNW 07:42:26 16° NNW 07:45:57 10° NNE visible
28 Jun 10.9 09:29:10 10° NNW 09:31:28 12° N 09:33:46 10° NNE visible
29 Jun 7.9 04:11:28 10° SSW 04:17:07 57° ESE 04:22:49 10° NE visible
29 Jun 9.5 05:58:31 10° WSW 06:03:45 34° NW 06:09:03 10° NNE visible
29 Jun 10.7 07:49:04 10° NW 07:51:59 14° NNW 07:54:56 10° NNE visible
29 Jun 10.9 09:38:21 10° NNW 09:41:05 13° NNE 09:43:49 10° NE visible
30 Jun 7.8 04:20:16 10° SSW 04:26:05 80° ESE 04:31:57 10° NE visible
30 Jun 10.0 06:08:13 10° W 06:13:04 27° NW 06:17:58 10° NNE visible
30 Jun 10.9 07:59:08 10° NW 08:01:35 13° N 08:04:03 10° NNE visible
30 Jun 10.9 09:47:23 10° NNW 09:50:39 15° NNE 09:53:57 10° NE visible
01 Jul 8.1 04:29:18 10° SW 04:35:07 75° NW 04:40:59 10° NNE visible
01 Jul 10.4 06:18:04 10° W 06:22:27 21° NNW 06:26:53 10° NNE visible
01 Jul 11.0 08:09:04 10° NNW 08:11:13 12° N 08:13:22 10° NNE visible
01 Jul 10.8 09:56:21 10° NNW 10:00:11 17° NNE 10:04:04 10° ENE visible
02 Jul 8.7 04:38:32 10° SW 04:44:14 54° NW 04:49:58 10° NNE visible
02 Jul 10.7 06:28:02 10° WNW 06:31:54 18° NNW 06:35:48 10° NNE visible
02 Jul 11.1 08:18:42 10° NNW 08:20:51 12° N 08:23:00 10° NNE visible
02 Jul 10.7 10:05:16 10° NNW 10:09:39 21° NNE 10:14:06 10° ENE visible
03 Jul 9.3 04:47:57 10° WSW 04:53:24 41° NW 04:58:55 10° NNE visible
03 Jul 10.9 06:38:06 10° NW 06:41:25 15° NNW 06:44:46 10° NNE visible
03 Jul 11.1 08:28:03 10° NNW 08:30:28 12° N 08:32:55 10° NNE visible
03 Jul 10.4 10:14:10 10° NNW 10:19:03 26° NE 10:24:00 10° E visible
04 Jul 9.9 04:57:32 10° WSW 05:02:40 31° NW 05:07:51 10° NNE visible
04 Jul 11.1 06:48:12 10° NW 06:50:59 13° NNW 06:53:48 10° NNE visible
04 Jul 11.1 08:37:11 10° NNW 08:40:05 14° NNE 08:43:00 10° NE visible
04 Jul 9.9 10:23:05 10° NNW 10:28:23 32° NE 10:33:46 10° ESE visible
